sat.trackr.live / text

‹ back to catalog

STARLINK-1672

NORAD 46537 · 2020-070F

PAYLOAD ACTIVE UNKNOWN

§ Identity

Operator
Country
US
Launch date
2020-10-06
Launch site
AFETR
Launch vehicle
Mass (kg)
RCS (m²)

Purposes: comms

External: N2YO · Heavens-Above · Gunter

§ Orbital elements

Epoch: 2026-05-25T05:07:25.415904Z

Period
92.32 min
Inclination
53.0441°
Eccentricity
0.0005222
Mean motion
15.59778376 rev/d
Perigee alt
384.8 km
Apogee alt
391.8 km
Semi-major
6,766.4 km
B*
6.9881e-4
RAAN
128.1885°
Arg perigee
16.8749°
Mean anomaly
343.2436°
Rev number
31,195

§ Raw data

STARLINK-16721 46537U 20070F   26145.21348861  .00056958  00000+0  69881-3 0  99922 46537  53.0441 128.1885 0005222  16.8749 343.2436 15.59778376311955

JSON: /api/v1/satellites/46537 · /tle

For live sub-satellite position, see the globe view (requires WebGL).

§ Visibility from observer

Set your observer location to see the next 7 days of passes ≥ 10°. The values pass through the URL so the page stays shareable.

No JS? Fill the form by hand. The geolocation button needs JavaScript.